Memphis, TN

6:08 AM CDT on March 28, 2017 (GMT -0500)
Memphis International

Weather History for KMEM - February, 2013

Change the Weather History Date:

Friday, February 8, 2013

  Actual Average Record
Temperature  
Mean Temperature 47 °F 44 °F  
Max Temperature 58 °F 53 °F 77 °F (1999)
Min Temperature 36 °F 35 °F -3 °F (1895)
Degree Days  
Heating Degree Days 18 21  
Month to date heating degree days 145 176  
Since 1 July heating degree days 1796 2078  
Cooling Degree Days 0 0  
Month to date cooling degree days 0 0  
Year to date cooling degree days 9 1  
Moisture  
Dew Point 40 °F    
Average Humidity 77    
Maximum Humidity 93    
Minimum Humidity 60    
Precipitation  
Precipitation 0.19 in 0.15 in 3.96 in (1944)
Month to date precipitation 0.29 1.22  
Year to date precipitation 10.01 5.20  
Snow  
Snow 0.00 in 0.10 in 5.00 in (2010)
Month to date snowfall 0.0 0.5  
Since 1 July snowfall 0.9 2.6  
Snow Depth 0.00 in    
Sea Level Pressure  
Sea Level Pressure 30.14 in    
Wind  
Wind Speed 14 mph (North)    
Max Wind Speed 28 mph    
Max Gust Speed 33 mph    
Visibility 7 miles    
Events Rain    
T = Trace of Precipitation, MM = Missing Value Source: NWS Daily Summary

Daily Weather History Graph

Daily Weather History Graph

Search for Another Location

Airport or City:

Trip Planner

Search our weather history database for the weather conditions in past years. The results will help you decide how hot, cold, wet, or windy it might be!

Date:

Astronomy

Feb. 08, 2013 Rise Set
Actual Time 6:52 AM CST 5:36 PM CST
Civil Twilight 6:26 AM CST 6:02 PM CST
Nautical Twilight 5:56 AM CST 6:32 PM CST
Astronomical Twilight 5:26 AM CST 7:01 PM CST
Moon 5:19 AM CST (2/8) 4:10 PM CST (2/8)
Length of Visible Light 11h 35m
Length of Day
10h 43m
Waning Crescent, 3% of the Moon is Illuminated
Feb 8
Waning Crescent
Feb 10
New
Feb 17
First Quarter
Feb 25
Full
Mar 4
Last Quarter

Hourly Weather History & Observations

Time (CST) Temp. Windchill Dew Point Humidity Pressure Visibility Wind Dir Wind Speed Gust Speed Precip Events Conditions
12:02 AM 57.2 °F - 55.4 °F 94% 29.92 in 2.5 mi NW 5.8 mph - 0.00 in Rain Light Rain
12:09 AM 57.2 °F - 55.4 °F 94% 29.91 in 1.8 mi NW 5.8 mph - 0.04 in Rain Heavy Rain
12:12 AM 57.2 °F - 55.4 °F 94% 29.92 in 2.0 mi WNW 6.9 mph - N/A Rain Rain
12:15 AM 57.2 °F - 55.4 °F 94% 29.92 in 1.8 mi NW 6.9 mph - 0.07 in Rain Rain
12:21 AM 57.2 °F - 55.4 °F 94% 29.92 in 1.0 mi NW 8.1 mph - 0.08 in Rain Rain
12:54 AM 57.0 °F - 55.0 °F 93% 29.91 in 5.0 mi WNW 8.1 mph - 0.10 in Rain Light Rain
1:04 AM 57.2 °F - 55.4 °F 94% 29.91 in 5.0 mi NW 9.2 mph - 0.00 in Rain Light Rain
1:54 AM 55.9 °F - 53.1 °F 90% 29.92 in 10.0 mi North 15.0 mph 20.7 mph 0.04 in   Overcast
2:11 AM 55.4 °F - 51.8 °F 88% 29.93 in 9.0 mi North 15.0 mph - N/A   Overcast
2:54 AM 54.0 °F - 50.0 °F 86% 29.94 in 6.0 mi North 20.7 mph 27.6 mph 0.00 in   Light Drizzle
3:54 AM 50.0 °F - 46.9 °F 89% 29.99 in 6.0 mi North 15.0 mph 21.9 mph 0.02 in Rain Light Rain
4:42 AM 48.2 °F - 44.6 °F 87% 30.02 in 7.0 mi NNE 16.1 mph 24.2 mph 0.03 in Rain Light Rain
4:54 AM 48.9 °F - 45.0 °F 86% 30.03 in 7.0 mi North 16.1 mph - 0.03 in   Overcast
5:23 AM 48.2 °F - 44.6 °F 87% 30.04 in 8.0 mi North 13.8 mph 24.2 mph N/A Rain Light Rain
5:54 AM 46.9 °F - 42.1 °F 83% 30.07 in 8.0 mi North 17.3 mph 25.3 mph 0.00 in Rain Light Rain
6:14 AM 46.4 °F 39.0 °F 41.0 °F 81% 30.08 in 8.0 mi North 19.6 mph 25.3 mph 0.00 in Rain Light Rain
6:38 AM 46.4 °F 39.5 °F 41.0 °F 81% 30.10 in 8.0 mi North 17.3 mph 21.9 mph 0.00 in   Overcast
6:54 AM 46.0 °F 38.3 °F 41.0 °F 83% 30.11 in 8.0 mi North 20.7 mph 28.8 mph 0.00 in   Overcast
6:59 AM 46.4 °F 39.8 °F 41.0 °F 81% 30.11 in 9.0 mi North 16.1 mph 28.8 mph N/A   Overcast
7:46 AM 44.6 °F 35.9 °F 37.4 °F 76% 30.15 in 9.0 mi North 23.0 mph 31.1 mph N/A   Overcast
7:54 AM 45.0 °F 37.4 °F 37.9 °F 76% 30.16 in 10.0 mi North 18.4 mph 27.6 mph N/A   Overcast
8:54 AM 45.0 °F 37.9 °F 37.0 °F 74% 30.19 in 10.0 mi North 16.1 mph 26.5 mph N/A   Overcast
9:54 AM 45.0 °F 36.9 °F 36.0 °F 71% 30.22 in 10.0 mi NNE 20.7 mph - N/A   Overcast
10:54 AM 45.0 °F 38.5 °F 36.0 °F 71% 30.26 in 7.0 mi North 13.8 mph - N/A   Overcast
11:54 AM 45.0 °F 37.1 °F 35.1 °F 68% 30.26 in 7.0 mi NNE 19.6 mph 26.5 mph N/A   Overcast
12:54 PM 45.0 °F 37.4 °F 34.0 °F 65% 30.26 in 7.0 mi NNE 18.4 mph 25.3 mph N/A   Overcast
1:54 PM 45.0 °F 38.2 °F 34.0 °F 65% 30.26 in 7.0 mi NE 15.0 mph 19.6 mph N/A   Mostly Cloudy
2:54 PM 46.0 °F 39.9 °F 34.0 °F 63% 30.25 in 7.0 mi NNE 13.8 mph - N/A   Mostly Cloudy
3:54 PM 45.0 °F 39.3 °F 33.1 °F 63% 30.27 in 6.0 mi NNE 11.5 mph - N/A   Haze
4:54 PM 43.0 °F 36.8 °F 33.1 °F 68% 30.28 in 6.0 mi NNE 11.5 mph - N/A   Haze
5:54 PM 41.0 °F 32.8 °F 30.9 °F 67% 30.28 in 8.0 mi NNE 16.1 mph - N/A   Mostly Cloudy
6:54 PM 41.0 °F 33.5 °F 30.9 °F 67% 30.29 in 7.0 mi NE 13.8 mph 21.9 mph N/A   Overcast
7:54 PM 41.0 °F 33.9 °F 30.9 °F 67% 30.32 in 8.0 mi ENE 12.7 mph - N/A   Overcast
8:49 PM 39.2 °F 33.0 °F 30.2 °F 70% 30.31 in 10.0 mi ENE 9.2 mph - N/A   Scattered Clouds
8:54 PM 39.0 °F 33.4 °F 30.0 °F 70% 30.31 in 10.0 mi NE 8.1 mph - N/A   Scattered Clouds
9:54 PM 37.0 °F 33.3 °F 30.0 °F 76% 30.32 in 9.0 mi North 4.6 mph - N/A   Clear
10:54 PM 37.0 °F 32.4 °F 30.0 °F 76% 30.30 in 9.0 mi NE 5.8 mph - N/A   Clear
11:54 PM 37.0 °F 31.6 °F 30.0 °F 76% 30.30 in 9.0 mi NE 6.9 mph - N/A   Clear